Regional Weather Roundup
Issued by NWS

Home | Current Version | Previous Version | Text Only | Print | Product List | Glossary On
Versions: 1 2 3 4 5 6 7 8 9 10 11 12 13 14 15 16 17 18 19 20 21 22 23 24 25 26 27 28 29 30 31 32 33 34 35 36 37 38 39 40 41 42 43 44 45 46 47 48 49 50
000
ASUS44 KLIX 031411
RWRLA
LOUISIANA WEATHER ROUNDUP
NATIONAL WEATHER SERVICE NEW ORLEANS LA
900 AM CDT SUN MAY 03 2015

NOTE: "FAIR" INDICATES FEW OR NO CLOUDS BELOW 12,000 FEET WITH NO
      SIGNIFICANT WEATHER AND/OR OBSTRUCTIONS TO VISIBILITY.
      SKY/WX - SKY CONDITION AND SIGNIFICANT WEATHER.
      TMP - AIR TEMPERATURE.    DP   - DEWPOINT TEMPERATURE.
      RH  - RELATIVE HUMIDITY.  PRES - PRESSURE.
      HX  - HEAT INDEX.         WCI  - WIND CHILL INDEX.

*  THESE STATIONS ARE NOT NWS OR FAA STATIONS AND ARE NOT UNDER
   NWS QUALITY CONTROL.

LAZ040-048-061>063-065-066-069-031500-
SOUTHEAST LOUISIANA

CITY           SKY/WX    TMP DP  RH WIND       PRES   REMARKS
N.O. AUDUBON     N/A     75  64  69 MISG        N/A
N.O. INTL ARPT MOSUNNY   74  62  66 S5        30.12R
N.O. LAKEFRONT SUNNY     75  60  59 E7        30.12R
SLIDELL        SUNNY     72  63  73 E3        30.12R
BATON ROUGE    PTSUNNY   72  63  73 CALM      30.11R
BOOTHVILLE     SUNNY     73  59  61 E6        30.13R
BELLE CHASSE   MOSUNNY   73  61  65 SE9       30.11R
BOGALUSA*        N/A     67  60  76 CALM      30.15R
GALLIANO*      SUNNY     76  62  61 MISG      30.12R
NEW ROADS*     FAIR      68  63  85 CALM      30.12R
GONZALES*      FAIR      73  65  75 CALM      30.11R
HAMMOND*       SUNNY     73  63  68 S5        30.13S
HOUMA*         SUNNY     73  63  68 CALM      30.11R
PORT FOURCHON* SUNNY     75  57  53 E5        30.14S

$$

LAZ041-044-053-054-031500-
SOUTHWEST LOUISIANA

CITY           SKY/WX    TMP DP  RH WIND       PRES   REMARKS
LAKE CHARLES   SUNNY     71  65  81 CALM      30.09R
LAFAYETTE      MOSUNNY   72  65  78 CALM      30.11R
PATTERSON      MOSUNNY  N/A N/A N/A CALM      30.12R
SALT POINT       N/A     75  66  73 CALM      30.09R
NEW IBERIA     MOSUNNY   73  62  68 CALM      30.12R
CHENAULT AIRPK SUNNY     70  64  83 CALM      30.10R

$$

LAZ027-028-031500-
CENTRAL LOUISIANA

CITY           SKY/WX    TMP DP  RH WIND       PRES   REMARKS
FORT POLK      SUNNY     69  60  72 SW7       30.09R
ALEXANDRIA INT SUNNY     70  59  68 SW3       30.08R
ALEXANDRIA     MOSUNNY   65  62  90 E3        30.10R

$$

LAZ001-002-031500-
NORTHWEST LOUISIANA

CITY           SKY/WX    TMP DP  RH WIND       PRES   REMARKS
SHREVEPORT     SUNNY     69  59  70 SW6       30.07R
BARKSDALE AFB  SUNNY     69  58  66 VRB3      30.07R
DTN SHREVEPORT SUNNY     69  57  65 SW10      30.07R

$$

LAZ014-016-031500-
NORTHEAST LOUISIANA

CITY           SKY/WX    TMP DP  RH WIND       PRES   REMARKS
MONROE         MOSUNNY   67  60  78 SW5       30.10R
TALLULAH       MOSUNNY   68  61  78 S8        30.11R

$$




USA.gov is the U.S. government's official web portal to all federal, state and local government web resources and services.